Taos, NM

9:48 AM MDT on July 20, 2017 (GMT -0600)
Taos Municipal

Weather History for KSKX - June, 2013

Change the Weather History Date:

Tuesday, June 18, 2013

  Actual Average Record
Temperature  
Mean Temperature 70 °F -  
Max Temperature 84 °F 79 °F 91 °F (2002)
Min Temperature 57 °F 42 °F 33 °F (1998)
Cooling Degree Days 6    
Growing Degree Days 20 (Base 50)    
Moisture  
Dew Point 40 °F    
Average Humidity 38    
Maximum Humidity 63    
Minimum Humidity 16    
Precipitation  
Precipitation 0.00 in - - ()
Sea Level Pressure  
Sea Level Pressure 30.23 in    
Wind  
Wind Speed 16 mph (SSW)    
Max Wind Speed 28 mph    
Max Gust Speed 33 mph    
Visibility 10 miles    
Events      
Averages and records for this station are not official NWS values.
T = Trace of Precipitation, MM = Missing Value Source: NWS Daily Summary

Daily Weather History Graph

Daily Weather History Graph

Search for Another Location

Airport or City:

Trip Planner

Search our weather history database for the weather conditions in past years. The results will help you decide how hot, cold, wet, or windy it might be!

Date:

Astronomy

Jun. 18, 2013 Rise Set
Actual Time 5:44 AM MDT 8:23 PM MDT
Civil Twilight 5:13 AM MDT 8:53 PM MDT
Nautical Twilight 4:35 AM MDT 9:31 PM MDT
Astronomical Twilight 3:53 AM MDT 10:14 PM MDT
Moon 3:17 PM MDT (6/18) 1:47 AM MDT (6/18)
Length of Visible Light 15h 40m
Length of Day
14h 38m
Waxing Gibbous, 71% of the Moon is Illuminated
Jun 18
Waxing Gibbous
Jun 23
Full
Jun 29
Last Quarter
Jul 8
New
Jul 15
First Quarter

Hourly Weather History & Observations

Time (MDT) Temp. Dew Point Humidity Pressure Visibility Wind Dir Wind Speed Gust Speed Precip Events Conditions
12:15 AM 62.6 °F 41.0 °F 45% 30.25 in 10.0 mi ESE 27.6 mph 33.4 mph N/A   Scattered Clouds
12:35 AM 62.6 °F 41.0 °F 45% 30.26 in 10.0 mi ESE 24.2 mph 32.2 mph N/A   Partly Cloudy
12:55 AM 62.6 °F 41.0 °F 45% 30.26 in 10.0 mi ESE 20.7 mph 27.6 mph N/A   Partly Cloudy
1:15 AM 60.8 °F 41.0 °F 48% 30.27 in 10.0 mi ESE 20.7 mph 31.1 mph N/A   Clear
1:35 AM 60.8 °F 42.8 °F 52% 30.26 in 10.0 mi ESE 21.9 mph 28.8 mph N/A   Clear
1:55 AM 60.8 °F 42.8 °F 52% 30.27 in 10.0 mi ESE 23.0 mph 27.6 mph N/A   Clear
2:15 AM 60.8 °F 42.8 °F 52% 30.27 in 10.0 mi ESE 20.7 mph 25.3 mph N/A   Clear
2:35 AM 60.8 °F 42.8 °F 52% 30.27 in 10.0 mi ESE 20.7 mph - N/A   Clear
2:55 AM 59.0 °F 42.8 °F 55% 30.28 in 10.0 mi SE 17.3 mph - N/A   Clear
3:15 AM 59.0 °F 42.8 °F 55% 30.28 in 10.0 mi ESE 18.4 mph 25.3 mph N/A   Clear
3:35 AM 59.0 °F 42.8 °F 55% 30.28 in 10.0 mi ESE 18.4 mph 23.0 mph N/A   Clear
3:55 AM 59.0 °F 42.8 °F 55% 30.29 in 10.0 mi ESE 18.4 mph 24.2 mph N/A   Clear
4:15 AM 59.0 °F 42.8 °F 55% 30.28 in 10.0 mi ESE 16.1 mph - N/A   Clear
4:35 AM 59.0 °F 42.8 °F 55% 30.28 in 10.0 mi SE 16.1 mph - N/A   Clear
4:55 AM 59.0 °F 42.8 °F 55% 30.29 in 10.0 mi SE 16.1 mph - N/A   Scattered Clouds
5:15 AM 59.0 °F 42.8 °F 55% 30.30 in 10.0 mi SE 15.0 mph - N/A   Overcast
5:35 AM 59.0 °F 42.8 °F 55% 30.30 in 10.0 mi SSE 9.2 mph 17.3 mph N/A   Overcast
5:55 AM 57.2 °F 44.6 °F 63% 30.31 in 10.0 mi SSE 12.7 mph 17.3 mph N/A   Overcast
6:15 AM 57.2 °F 42.8 °F 59% 30.32 in 10.0 mi SSE 11.5 mph - N/A   Overcast
6:35 AM 59.0 °F 42.8 °F 55% 30.32 in 10.0 mi SE 10.4 mph - N/A   Overcast
6:55 AM 60.8 °F 42.8 °F 52% 30.32 in 10.0 mi SE 9.2 mph - N/A   Overcast
7:15 AM 60.8 °F 42.8 °F 52% 30.32 in 10.0 mi SE 8.1 mph - N/A   Partly Cloudy
7:35 AM 60.8 °F 42.8 °F 52% 30.32 in 10.0 mi South 4.6 mph - N/A   Mostly Cloudy
7:55 AM 62.6 °F 46.4 °F 55% 30.33 in 10.0 mi West 5.8 mph - N/A   Overcast
8:15 AM 62.6 °F 46.4 °F 55% 30.33 in 10.0 mi WNW 4.6 mph - N/A   Overcast
8:35 AM 62.6 °F 44.6 °F 52% 30.34 in 10.0 mi Calm Calm - N/A   Overcast
8:55 AM 62.6 °F 46.4 °F 55% 30.34 in 10.0 mi North 3.5 mph - N/A   Overcast
9:15 AM 64.4 °F 46.4 °F 52% 30.34 in 10.0 mi Calm Calm - N/A   Overcast
9:35 AM 64.4 °F 46.4 °F 52% 30.33 in 10.0 mi WSW 5.8 mph - N/A   Overcast
9:55 AM 66.2 °F 46.4 °F 49% 30.32 in 10.0 mi West 8.1 mph - N/A   Overcast
10:15 AM 69.8 °F 46.4 °F 43% 30.32 in 10.0 mi SW 6.9 mph - N/A   Mostly Cloudy
10:35 AM 69.8 °F 44.6 °F 40% 30.31 in 10.0 mi SE 4.6 mph - N/A   Mostly Cloudy
10:55 AM 69.8 °F 44.6 °F 40% 30.31 in 10.0 mi WNW 8.1 mph - N/A   Overcast
11:15 AM 73.4 °F 46.4 °F 38% 30.30 in 10.0 mi WSW 11.5 mph 16.1 mph N/A   Mostly Cloudy
11:35 AM 73.4 °F 46.4 °F 38% 30.30 in 10.0 mi WSW 3.5 mph - N/A   Scattered Clouds
11:55 AM 73.4 °F 46.4 °F 38% 30.29 in 10.0 mi West 8.1 mph - N/A   Partly Cloudy
12:15 PM 75.2 °F 46.4 °F 36% 30.28 in 10.0 mi SW 8.1 mph 18.4 mph N/A   Scattered Clouds
12:35 PM 73.4 °F 46.4 °F 38% 30.27 in 10.0 mi WSW 9.2 mph 19.6 mph N/A   Scattered Clouds
12:55 PM 75.2 °F 46.4 °F 36% 30.26 in 10.0 mi WSW 9.2 mph 19.6 mph N/A   Partly Cloudy
1:15 PM 75.2 °F 46.4 °F 36% 30.25 in 10.0 mi SW 12.7 mph 17.3 mph N/A   Clear
1:35 PM 77.0 °F 46.4 °F 34% 30.24 in 10.0 mi West 5.8 mph 21.9 mph N/A   Clear
1:55 PM 78.8 °F 46.4 °F 32% 30.23 in 10.0 mi West 15.0 mph 23.0 mph N/A   Clear
2:15 PM 78.8 °F 46.4 °F 32% 30.22 in 10.0 mi WSW 13.8 mph 21.9 mph N/A   Clear
2:35 PM 78.8 °F 46.4 °F 32% 30.21 in 10.0 mi West 10.4 mph 23.0 mph N/A   Clear
2:55 PM 80.6 °F 44.6 °F 28% 30.19 in 10.0 mi SW 16.1 mph 21.9 mph N/A   Clear
3:15 PM 80.6 °F 42.8 °F 26% 30.19 in 10.0 mi WSW 18.4 mph 26.5 mph N/A   Clear
3:35 PM 82.4 °F 42.8 °F 25% 30.18 in 10.0 mi WSW 15.0 mph 25.3 mph N/A   Clear
3:55 PM 82.4 °F 42.8 °F 25% 30.17 in 10.0 mi WSW 19.6 mph 24.2 mph N/A   Partly Cloudy
4:15 PM 82.4 °F 37.4 °F 20% 30.16 in 10.0 mi SW 15.0 mph 25.3 mph N/A   Partly Cloudy
4:35 PM 82.4 °F 37.4 °F 20% 30.15 in 10.0 mi SSW 19.6 mph 25.3 mph N/A   Clear
4:55 PM 84.2 °F 35.6 °F 18% 30.15 in 10.0 mi WSW 20.7 mph 24.2 mph N/A   Clear
5:15 PM 82.4 °F 35.6 °F 19% 30.14 in 10.0 mi SW 17.3 mph 26.5 mph N/A   Clear
5:35 PM 82.4 °F 33.8 °F 17% 30.13 in 10.0 mi SW 17.3 mph 27.6 mph N/A   Clear
5:55 PM 82.4 °F 33.8 °F 17% 30.13 in 10.0 mi SW 19.6 mph 26.5 mph N/A   Clear
6:15 PM 82.4 °F 32.0 °F 16% 30.12 in 10.0 mi SW 17.3 mph 27.6 mph N/A   Clear
6:35 PM 80.6 °F 32.0 °F 17% 30.12 in 10.0 mi WSW 12.7 mph 17.3 mph N/A   Clear
6:55 PM 80.6 °F 33.8 °F 18% 30.12 in 10.0 mi SW 15.0 mph 20.7 mph N/A   Clear
7:15 PM 78.8 °F 32.0 °F 18% 30.12 in 10.0 mi SW 17.3 mph - N/A   Clear
7:35 PM 78.8 °F 32.0 °F 18% 30.12 in 10.0 mi SW 11.5 mph - N/A   Clear
7:55 PM 78.8 °F 32.0 °F 18% 30.12 in 10.0 mi SW 13.8 mph - N/A   Clear
8:15 PM 75.2 °F 32.0 °F 21% 30.12 in 10.0 mi SW 11.5 mph - N/A   Clear
8:35 PM 73.4 °F 32.0 °F 22% 30.12 in 10.0 mi SSW 9.2 mph - N/A   Partly Cloudy
8:55 PM 71.6 °F 30.2 °F 22% 30.12 in 10.0 mi SSW 8.1 mph - N/A   Clear
9:15 PM 69.8 °F 30.2 °F 23% 30.12 in 10.0 mi SW 6.9 mph - N/A   Clear
9:35 PM 69.8 °F 32.0 °F 25% 30.13 in 10.0 mi SW 6.9 mph - N/A   Clear
9:55 PM 68.0 °F 32.0 °F 26% 30.13 in 10.0 mi SSW 5.8 mph - N/A   Clear
10:15 PM 64.4 °F 30.2 °F 28% 30.14 in 10.0 mi East 5.8 mph - N/A   Clear
10:35 PM 64.4 °F 30.2 °F 28% 30.14 in 10.0 mi East 5.8 mph - N/A   Clear
10:55 PM 62.6 °F 30.2 °F 30% 30.14 in 10.0 mi East 8.1 mph - N/A   Clear
11:15 PM 62.6 °F 30.2 °F 30% 30.14 in 10.0 mi East 9.2 mph - N/A   Clear
11:35 PM 62.6 °F 30.2 °F 30% 30.13 in 10.0 mi East 10.4 mph - N/A   Clear
11:55 PM 60.8 °F 30.2 °F 31% 30.13 in 10.0 mi East 10.4 mph - N/A   Partly Cloudy